Regional Weather Roundup
Issued by NWS

Home | Current Version | Previous Version | Graphics & Text | Print | Product List | Glossary On
Versions: 1 2 3 4 5 6 7 8 9 10 11 12 13 14 15 16 17 18 19 20 21 22 23 24 25 26 27 28 29 30 31 32 33 34 35 36 37 38 39 40 41 42 43 44 45 46 47 48 49 50
000
ASUS43 KBIS 290110
RWRND

NORTH DAKOTA REGIONAL WEATHER ROUNDUP
NATIONAL WEATHER SERVICE BISMARCK ND
800 PM CDT WED JUN 28 2017

NOTE: "FAIR" INDICATES FEW OR NO CLOUDS BELOW 12,000 FEET WITH NO
SIGNIFICANT WEATHER AND/OR OBSTRUCTIONS TO VISIBILITY.


NDZ001>003-009>011-017-290200-
NORTHWEST NORTH DAKOTA

CITY           SKY/WX    TMP DP  RH WIND       PRES   REMARKS
WILLISTON      CLOUDY    75  45  34 SW6       29.72F
MINOT          CLOUDY    78  46  32 NW13      29.70R
MINOT AFB      CLOUDY    77  48  35 NW12      29.69R
$$

NDZ018>021-031>035-040>046-290200-
SOUTHWEST NORTH DAKOTA

CITY           SKY/WX    TMP DP  RH WIND       PRES   REMARKS
BISMARCK       SUNNY     80  48  32 N10       29.72R
DICKINSON      MOSUNNY   77  38  24 NE8       29.75R
GARRISON         N/A     76  47  35 N5        29.72R
HETTINGER ARPT PTSUNNY   78  32  18 E8        29.77R
$$

NDZ004>008-012>016-024-026-027-054-290200-
NORTHEAST NORTH DAKOTA

CITY           SKY/WX    TMP DP  RH WIND       PRES   REMARKS
GRAND FORKS    CLOUDY    70  64  81 N8        29.64R
GRND FRKS AFB  MOSUNNY   69  63  81 N7        29.65R
DEVILS LAKE    SUNNY     74  56  53 N8        29.68R
$$

NDZ022-023-025-028>030-036>039-047>053-290200-
SOUTHEAST NORTH DAKOTA

CITY           SKY/WX    TMP DP  RH WIND       PRES   REMARKS
FARGO          PTSUNNY   68  63  84 N13       29.63R
JAMESTOWN      SUNNY     76  50  40 N14       29.66R
$$





USA.gov is the U.S. government's official web portal to all federal, state and local government web resources and services.